Time,TemperatureF,DewpointF,PressureIn,WindDirection,WindDirectionDegrees,WindSpeedMPH,WindSpeedGustMPH,Humidity,HourlyPrecipIn,Conditions,Clouds,dailyrainin,SoftwareType,DateUTC
2013-04-15 00:02:00,37.0,28.0,29.59,WSW,250,20.0,27.0,69,-99.99,,,-99.99,,2013-04-15 05:02:00,
2013-04-15 00:12:00,37.0,28.0,29.59,WSW,250,20.0,27.0,69,-99.99,,,-99.99,,2013-04-15 05:12:00,
2013-04-15 00:23:00,37.0,28.0,29.59,WSW,250,20.0,27.0,69,-99.99,,,-99.99,,2013-04-15 05:23:00,
2013-04-15 00:33:00,36.0,28.0,29.61,WSW,250,22.0,30.0,74,-99.99,,,-99.99,,2013-04-15 05:33:00,
2013-04-15 00:43:00,36.0,28.0,29.61,WSW,250,22.0,30.0,74,-99.99,,,-99.99,,2013-04-15 05:43:00,
2013-04-15 00:53:00,36.0,28.0,29.63,WSW,250,16.0,21.0,74,-99.99,,,-99.99,,2013-04-15 05:53:00,
2013-04-15 01:02:00,36.0,28.0,29.63,WSW,250,16.0,21.0,74,-99.99,,,-99.99,,2013-04-15 06:02:00,
2013-04-15 01:12:00,36.0,28.0,29.63,WSW,250,14.0,18.0,74,-99.99,,,-99.99,,2013-04-15 06:12:00,
2013-04-15 01:22:00,36.0,28.0,29.63,WSW,250,14.0,18.0,74,-99.99,,,-99.99,,2013-04-15 06:22:00,
2013-04-15 01:33:00,36.0,25.0,29.64,West,270,27.0,33.0,64,-99.99,,,-99.99,,2013-04-15 06:33:00,
2013-04-15 01:35:00,34.0,25.0,29.65,WSW,250,21.0,30.0,69,-99.99,,,-99.99,,2013-04-15 06:35:00,
2013-04-15 01:42:00,36.0,25.0,29.64,West,270,27.0,33.0,64,-99.99,,,-99.99,,2013-04-15 06:42:00,
2013-04-15 01:52:00,34.0,25.0,29.65,WSW,250,21.0,30.0,69,-99.99,,,-99.99,,2013-04-15 06:52:00,
2013-04-15 02:02:00,34.0,25.0,29.65,WSW,250,21.0,30.0,69,-99.99,,,-99.99,,2013-04-15 07:02:00,
2013-04-15 02:43:00,34.0,23.0,29.65,West,260,28.0,35.0,64,-99.99,,,-99.99,,2013-04-15 07:43:00,
2013-04-15 02:54:00,34.0,23.0,29.65,West,260,24.0,33.0,64,-99.99,,,-99.99,,2013-04-15 07:54:00,
2013-04-15 03:02:00,34.0,23.0,29.65,West,260,24.0,33.0,64,-99.99,,,-99.99,,2013-04-15 08:02:00,
2013-04-15 03:13:00,32.0,23.0,29.65,West,260,22.0,35.0,69,-99.99,,,-99.99,,2013-04-15 08:13:00,
2013-04-15 03:22:00,32.0,23.0,29.65,West,260,22.0,35.0,69,-99.99,,,-99.99,,2013-04-15 08:22:00,
2013-04-15 03:33:00,30.0,23.0,29.65,West,260,25.0,37.0,74,-99.99,,,-99.99,,2013-04-15 08:33:00,
2013-04-15 03:42:00,30.0,23.0,29.65,West,260,25.0,37.0,74,-99.99,,,-99.99,,2013-04-15 08:42:00,
2013-04-15 03:52:00,30.0,23.0,29.65,West,270,22.0,32.0,74,-99.99,,,-99.99,,2013-04-15 08:52:00,
2013-04-15 04:02:00,30.0,23.0,29.65,West,270,22.0,32.0,74,-99.99,,,-99.99,,2013-04-15 09:02:00,
2013-04-15 04:12:00,30.0,23.0,29.66,WSW,250,14.0,23.0,74,-99.99,,,-99.99,,2013-04-15 09:12:00,
2013-04-15 04:23:00,30.0,23.0,29.66,WSW,250,14.0,23.0,74,-99.99,,,-99.99,,2013-04-15 09:23:00,
2013-04-15 04:32:00,30.0,23.0,29.67,West,260,23.0,36.0,74,-99.99,,,-99.99,,2013-04-15 09:32:00,
2013-04-15 04:43:00,30.0,23.0,29.67,West,260,23.0,36.0,74,-99.99,,,-99.99,,2013-04-15 09:43:00,
2013-04-15 04:53:00,30.0,25.0,29.67,West,270,25.0,31.0,80,-99.99,,,-99.99,,2013-04-15 09:53:00,
2013-04-15 05:02:00,30.0,25.0,29.67,West,270,25.0,31.0,80,-99.99,,,-99.99,,2013-04-15 10:02:00,
2013-04-15 05:13:00,30.0,25.0,29.67,West,270,25.0,31.0,80,-99.99,,,-99.99,,2013-04-15 10:13:00,
2013-04-15 05:23:00,30.0,25.0,29.67,West,270,25.0,31.0,80,-99.99,,,-99.99,,2013-04-15 10:23:00,
2013-04-15 05:33:00,30.0,25.0,29.67,WSW,250,18.0,29.0,80,-99.99,,,-99.99,,2013-04-15 10:33:00,
2013-04-15 05:42:00,30.0,25.0,29.67,WSW,250,18.0,29.0,80,-99.99,,,-99.99,,2013-04-15 10:42:00,
2013-04-15 05:53:00,30.0,25.0,29.69,WSW,250,17.0,29.0,80,-99.99,,,-99.99,,2013-04-15 10:53:00,
2013-04-15 06:03:00,30.0,25.0,29.69,WSW,250,17.0,29.0,80,-99.99,,,-99.99,,2013-04-15 11:03:00,
2013-04-15 06:12:00,30.0,25.0,29.69,WSW,250,17.0,29.0,80,-99.99,,,-99.99,,2013-04-15 11:12:00,
2013-04-15 06:22:00,30.0,25.0,29.69,WSW,250,17.0,29.0,80,-99.99,,,-99.99,,2013-04-15 11:22:00,
2013-04-15 06:32:00,30.0,25.0,29.69,West,260,16.0,23.0,80,-99.99,,,-99.99,,2013-04-15 11:32:00,
2013-04-15 06:43:00,30.0,25.0,29.69,West,260,16.0,23.0,80,-99.99,,,-99.99,,2013-04-15 11:43:00,
2013-04-15 06:54:00,32.0,27.0,29.71,WSW,250,22.0,28.0,80,-99.99,,,-99.99,,2013-04-15 11:54:00,
2013-04-15 07:04:00,32.0,27.0,29.71,WSW,250,22.0,28.0,80,-99.99,,,-99.99,,2013-04-15 12:04:00,
2013-04-15 07:14:00,32.0,27.0,29.74,WSW,240,18.0,30.0,80,-99.99,,,-99.99,,2013-04-15 12:14:00,
2013-04-15 07:23:00,32.0,27.0,29.74,WSW,240,18.0,30.0,80,-99.99,,,-99.99,,2013-04-15 12:23:00,
2013-04-15 07:33:00,32.0,27.0,29.73,WSW,250,20.0,30.0,80,-99.99,,,-99.99,,2013-04-15 12:33:00,
2013-04-15 07:43:00,32.0,27.0,29.73,WSW,250,20.0,30.0,80,-99.99,,,-99.99,,2013-04-15 12:43:00,
2013-04-15 07:52:00,32.0,27.0,29.73,West,260,18.0,29.0,80,-99.99,,,-99.99,,2013-04-15 12:52:00,
2013-04-15 08:04:00,32.0,27.0,29.73,West,260,18.0,29.0,80,-99.99,,,-99.99,,2013-04-15 13:04:00,
2013-04-15 08:12:00,32.0,27.0,29.73,West,260,18.0,29.0,80,-99.99,,,-99.99,,2013-04-15 13:12:00,
2013-04-15 08:23:00,32.0,27.0,29.73,West,260,18.0,29.0,80,-99.99,,,-99.99,,2013-04-15 13:23:00,
2013-04-15 08:33:00,34.0,27.0,29.72,West,280,23.0,32.0,74,-99.99,,,-99.99,,2013-04-15 13:33:00,
2013-04-15 08:43:00,34.0,27.0,29.72,West,280,23.0,32.0,74,-99.99,,,-99.99,,2013-04-15 13:43:00,
2013-04-15 08:54:00,34.0,27.0,29.73,West,260,15.0,25.0,74,-99.99,,,-99.99,,2013-04-15 13:54:00,
2013-04-15 09:05:00,34.0,27.0,29.73,West,260,15.0,25.0,74,-99.99,,,-99.99,,2013-04-15 14:05:00,
2013-04-15 09:12:00,34.0,27.0,29.77,West,270,14.0,27.0,74,-99.99,,,-99.99,,2013-04-15 14:12:00,
2013-04-15 09:22:00,34.0,27.0,29.77,West,270,14.0,27.0,74,-99.99,,,-99.99,,2013-04-15 14:22:00,
2013-04-15 09:33:00,34.0,28.0,29.78,West,270,17.0,23.0,80,-99.99,,,-99.99,,2013-04-15 14:33:00,
2013-04-15 09:44:00,34.0,28.0,29.78,West,270,17.0,23.0,80,-99.99,,,-99.99,,2013-04-15 14:44:00,
2013-04-15 09:53:00,34.0,28.0,29.80,WSW,250,17.0,23.0,80,-99.99,,,-99.99,,2013-04-15 14:53:00,
2013-04-15 10:03:00,34.0,28.0,29.80,WSW,250,17.0,23.0,80,-99.99,,,-99.99,,2013-04-15 15:03:00,
2013-04-15 10:13:00,34.0,28.0,29.80,WSW,250,17.0,23.0,80,-99.99,,,-99.99,,2013-04-15 15:13:00,
2013-04-15 10:35:00,34.0,28.0,29.83,West,260,20.0,24.0,80,-99.99,,,-99.99,,2013-04-15 15:35:00,
2013-04-15 10:45:00,34.0,28.0,29.83,West,260,20.0,24.0,80,-99.99,,,-99.99,,2013-04-15 15:45:00,
2013-04-15 10:55:00,36.0,28.0,29.83,WSW,250,18.0,24.0,74,-99.99,,,-99.99,,2013-04-15 15:55:00,
2013-04-15 11:04:00,36.0,28.0,29.83,WSW,250,18.0,24.0,74,-99.99,,,-99.99,,2013-04-15 16:04:00,
2013-04-15 11:13:00,36.0,28.0,29.84,West,260,21.0,27.0,74,-99.99,,,-99.99,,2013-04-15 16:13:00,
2013-04-15 11:24:00,36.0,28.0,29.84,West,260,21.0,27.0,74,-99.99,,,-99.99,,2013-04-15 16:24:00,
2013-04-15 11:33:00,36.0,28.0,29.85,West,260,21.0,29.0,74,-99.99,,,-99.99,,2013-04-15 16:33:00,
2013-04-15 11:44:00,36.0,28.0,29.85,West,260,21.0,29.0,74,-99.99,,,-99.99,,2013-04-15 16:44:00,
2013-04-15 11:53:00,36.0,28.0,29.87,West,260,17.0,24.0,74,-99.99,,,-99.99,,2013-04-15 16:53:00,
2013-04-15 12:03:00,36.0,28.0,29.87,West,260,17.0,24.0,74,-99.99,,,-99.99,,2013-04-15 17:03:00,
2013-04-15 12:14:00,36.0,28.0,29.89,West,260,21.0,31.0,74,-99.99,,,-99.99,,2013-04-15 17:14:00,
2013-04-15 12:22:00,36.0,28.0,29.89,West,260,21.0,31.0,74,-99.99,,,-99.99,,2013-04-15 17:22:00,
2013-04-15 12:33:00,36.0,28.0,29.89,West,270,23.0,31.0,74,-99.99,,,-99.99,,2013-04-15 17:33:00,
2013-04-15 12:43:00,36.0,28.0,29.89,West,270,23.0,31.0,74,-99.99,,,-99.99,,2013-04-15 17:43:00,
2013-04-15 12:52:00,36.0,28.0,29.91,West,270,23.0,32.0,74,-99.99,,,-99.99,,2013-04-15 17:52:00,
2013-04-15 13:03:00,36.0,28.0,29.91,West,270,23.0,32.0,74,-99.99,,,-99.99,,2013-04-15 18:03:00,
2013-04-15 13:12:00,36.0,28.0,29.91,West,270,23.0,32.0,74,-99.99,,,-99.99,,2013-04-15 18:12:00,
2013-04-15 13:23:00,36.0,28.0,29.91,West,270,23.0,32.0,74,-99.99,,,-99.99,,2013-04-15 18:23:00,
2013-04-15 13:32:00,39.0,30.0,29.90,West,280,25.0,30.0,69,-99.99,,,-99.99,,2013-04-15 18:32:00,
2013-04-15 13:42:00,39.0,30.0,29.90,West,280,25.0,30.0,69,-99.99,,,-99.99,,2013-04-15 18:42:00,
2013-04-15 13:52:00,39.0,30.0,29.89,West,270,27.0,35.0,69,-99.99,,,-99.99,,2013-04-15 18:52:00,
2013-04-15 14:02:00,39.0,30.0,29.89,West,270,27.0,35.0,69,-99.99,,,-99.99,,2013-04-15 19:02:00,
2013-04-15 14:12:00,39.0,30.0,29.89,West,270,27.0,35.0,69,-99.99,,,-99.99,,2013-04-15 19:12:00,
2013-04-15 14:22:00,39.0,30.0,29.89,West,270,27.0,35.0,69,-99.99,,,-99.99,,2013-04-15 19:22:00,
2013-04-15 14:36:00,37.0,30.0,29.91,WNW,290,24.0,31.0,74,-99.99,,,-99.99,,2013-04-15 19:36:00,
2013-04-15 14:58:00,37.0,30.0,29.91,WNW,290,24.0,31.0,74,-99.99,,,-99.99,,2013-04-15 19:58:00,
2013-04-15 15:01:00,37.0,30.0,29.92,West,280,23.0,29.0,74,-99.99,,,-99.99,,2013-04-15 20:01:00,
2013-04-15 15:02:00,37.0,30.0,29.92,West,280,23.0,29.0,74,-99.99,,,-99.99,,2013-04-15 20:02:00,
2013-04-15 15:11:00,37.0,30.0,29.93,West,280,23.0,28.0,74,-99.99,,,-99.99,,2013-04-15 20:11:00,
2013-04-15 15:22:00,37.0,30.0,29.93,West,280,23.0,28.0,74,-99.99,,,-99.99,,2013-04-15 20:22:00,
2013-04-15 15:32:00,37.0,28.0,29.93,WNW,290,24.0,-999.0,69,-99.99,,,-99.99,,2013-04-15 20:32:00,
2013-04-15 15:42:00,37.0,28.0,29.93,WNW,290,24.0,-999.0,69,-99.99,,,-99.99,,2013-04-15 20:42:00,
2013-04-15 15:52:00,37.0,28.0,29.93,WNW,290,22.0,29.0,69,-99.99,,,-99.99,,2013-04-15 20:52:00,
2013-04-15 16:02:00,37.0,28.0,29.93,WNW,290,22.0,29.0,69,-99.99,,,-99.99,,2013-04-15 21:02:00,
2013-04-15 16:12:00,39.0,30.0,29.94,WNW,290,20.0,27.0,69,-99.99,,,-99.99,,2013-04-15 21:12:00,
2013-04-15 16:22:00,39.0,30.0,29.94,WNW,290,20.0,27.0,69,-99.99,,,-99.99,,2013-04-15 21:22:00,
2013-04-15 16:32:00,39.0,28.0,29.95,WNW,290,22.0,28.0,64,-99.99,,,-99.99,,2013-04-15 21:32:00,
2013-04-15 16:43:00,39.0,28.0,29.95,WNW,290,22.0,28.0,64,-99.99,,,-99.99,,2013-04-15 21:43:00,
2013-04-15 16:53:00,39.0,28.0,29.95,NW,310,24.0,29.0,64,-99.99,,,-99.99,,2013-04-15 21:53:00,
2013-04-15 17:02:00,39.0,28.0,29.95,NW,310,24.0,29.0,64,-99.99,,,-99.99,,2013-04-15 22:02:00,
2013-04-15 17:13:00,37.0,27.0,29.95,WNW,300,22.0,27.0,64,-99.99,,,-99.99,,2013-04-15 22:13:00,
2013-04-15 17:23:00,37.0,27.0,29.95,WNW,300,22.0,27.0,64,-99.99,,,-99.99,,2013-04-15 22:23:00,
2013-04-15 17:33:00,37.0,28.0,29.96,WNW,300,18.0,-999.0,69,-99.99,,,-99.99,,2013-04-15 22:33:00,
2013-04-15 17:42:00,37.0,28.0,29.96,WNW,300,18.0,-999.0,69,-99.99,,,-99.99,,2013-04-15 22:42:00,
2013-04-15 17:52:00,37.0,27.0,29.97,NW,310,15.0,22.0,64,-99.99,,,-99.99,,2013-04-15 22:52:00,
2013-04-15 18:02:00,37.0,27.0,29.97,NW,310,15.0,22.0,64,-99.99,,,-99.99,,2013-04-15 23:02:00,
2013-04-15 18:12:00,39.0,28.0,29.98,WNW,300,22.0,28.0,64,-99.99,,,-99.99,,2013-04-15 23:12:00,
2013-04-15 18:22:00,39.0,28.0,29.98,WNW,300,22.0,28.0,64,-99.99,,,-99.99,,2013-04-15 23:22:00,
2013-04-15 18:32:00,37.0,27.0,29.98,WNW,300,16.0,25.0,64,-99.99,,,-99.99,,2013-04-15 23:32:00,
2013-04-15 18:42:00,37.0,27.0,29.98,WNW,300,16.0,25.0,64,-99.99,,,-99.99,,2013-04-15 23:42:00,
2013-04-15 18:52:00,37.0,28.0,29.98,NW,310,13.0,20.0,69,-99.99,,,-99.99,,2013-04-15 23:52:00,
2013-04-15 19:02:00,37.0,28.0,29.98,NW,310,13.0,20.0,69,-99.99,,,-99.99,,2013-04-16 00:02:00,
2013-04-15 19:12:00,37.0,28.0,29.99,NW,320,15.0,20.0,69,-99.99,,,-99.99,,2013-04-16 00:12:00,
2013-04-15 19:22:00,37.0,28.0,29.99,NW,320,15.0,20.0,69,-99.99,,,-99.99,,2013-04-16 00:22:00,
2013-04-15 19:32:00,37.0,28.0,29.99,NW,310,15.0,22.0,69,-99.99,,,-99.99,,2013-04-16 00:32:00,
2013-04-15 19:42:00,37.0,28.0,29.99,NW,310,15.0,22.0,69,-99.99,,,-99.99,,2013-04-16 00:42:00,
2013-04-15 19:52:00,36.0,28.0,30.00,NW,310,13.0,18.0,74,-99.99,,,-99.99,,2013-04-16 00:52:00,
2013-04-15 20:02:00,36.0,28.0,30.00,NW,310,13.0,18.0,74,-99.99,,,-99.99,,2013-04-16 01:02:00,
2013-04-15 20:12:00,36.0,27.0,30.01,NW,310,15.0,20.0,69,-99.99,,,-99.99,,2013-04-16 01:12:00,
2013-04-15 20:22:00,36.0,27.0,30.01,NW,310,15.0,20.0,69,-99.99,,,-99.99,,2013-04-16 01:22:00,
2013-04-15 20:32:00,36.0,28.0,30.02,WNW,290,12.0,16.0,74,-99.99,,,-99.99,,2013-04-16 01:32:00,
2013-04-15 20:42:00,36.0,28.0,30.02,WNW,290,12.0,16.0,74,-99.99,,,-99.99,,2013-04-16 01:42:00,
2013-04-15 20:52:00,34.0,27.0,30.03,WNW,300,7.0,-999.0,74,-99.99,,,-99.99,,2013-04-16 01:52:00,
2013-04-15 21:02:00,34.0,27.0,30.03,WNW,300,7.0,-999.0,74,-99.99,,,-99.99,,2013-04-16 02:02:00,
2013-04-15 21:12:00,34.0,27.0,30.03,WNW,300,7.0,-999.0,74,-99.99,,,-99.99,,2013-04-16 02:12:00,
2013-04-15 21:22:00,34.0,27.0,30.03,WNW,300,7.0,-999.0,74,-99.99,,,-99.99,,2013-04-16 02:22:00,
2013-04-15 21:32:00,34.0,27.0,30.03,WNW,300,7.0,-999.0,74,-99.99,,,-99.99,,2013-04-16 02:32:00,
2013-04-15 21:42:00,34.0,27.0,30.07,West,270,6.0,-999.0,74,-99.99,,,-99.99,,2013-04-16 02:42:00,
2013-04-15 21:52:00,32.0,27.0,30.07,West,270,5.0,-999.0,80,-99.99,,,-99.99,,2013-04-16 02:52:00,
2013-04-15 22:02:00,32.0,27.0,30.07,West,270,5.0,-999.0,80,-99.99,,,-99.99,,2013-04-16 03:02:00,
2013-04-15 22:12:00,32.0,27.0,30.08,West,280,6.0,-999.0,80,-99.99,,,-99.99,,2013-04-16 03:12:00,
2013-04-15 22:22:00,32.0,27.0,30.08,West,280,6.0,-999.0,80,-99.99,,,-99.99,,2013-04-16 03:22:00,
2013-04-15 22:33:00,30.0,27.0,30.08,West,270,5.0,-999.0,86,-99.99,,,-99.99,,2013-04-16 03:33:00,
2013-04-15 22:43:00,30.0,27.0,30.08,West,270,5.0,-999.0,86,-99.99,,,-99.99,,2013-04-16 03:43:00,
2013-04-15 22:52:00,30.0,27.0,30.09,West,270,6.0,-999.0,86,-99.99,,,-99.99,,2013-04-16 03:52:00,
2013-04-15 23:03:00,30.0,27.0,30.09,West,270,6.0,-999.0,86,-99.99,,,-99.99,,2013-04-16 04:03:00,
2013-04-15 23:12:00,32.0,28.0,30.10,West,280,6.0,-999.0,86,-99.99,,,-99.99,,2013-04-16 04:12:00,
2013-04-15 23:23:00,32.0,28.0,30.10,West,280,6.0,-999.0,86,-99.99,,,-99.99,,2013-04-16 04:23:00,
2013-04-15 23:33:00,32.0,28.0,30.09,WNW,290,6.0,-999.0,86,-99.99,,,-99.99,,2013-04-16 04:33:00,
2013-04-15 23:42:00,32.0,28.0,30.09,WNW,290,6.0,-999.0,86,-99.99,,,-99.99,,2013-04-16 04:42:00,
2013-04-15 23:52:00,30.0,27.0,30.10,West,280,6.0,-999.0,86,-99.99,,,-99.99,,2013-04-16 04:52:00,